NOAA 17 DEB, 48614

Orbit data source: Space-Track

NOAA 17 DEB, 48614 is space debris in SSO originally from a launch on Mon, 24 Jun 2002 UTC launched from the Air Force Western Test Range (AFWTR). Debris objects in space refer to the collection of defunct objects orbiting the Earth. Examples of debris include non-operational satellites, rocket bodies, and fragments generated from explosions, collisions, or faulty payload assembly.

Loading next visibility...
Identifier
48614, 2002-032AF
Orbit
SSO
Country
Flag of USUS
Related business
Manufacturer
Unknown
Mission
Spacecraft
Bus & Motor
Unknown
Mass
Unknown
Launch date (UTC)
2002-06-24 (23 years ago)
Launch vehicle
Unknown
Launch site
Air Force Western Test Range (AFWTR)
Object type
Payload
Rocket body
Debris
Shape & HBR
Unknown shape, 0.1 m
Radar Cross Section
Small (<0.1 m²)

Expand to show TLE details & history
Last TLE update: 1 day ago

TLE from 1 day ago
0 NOAA 17 DEB
1 48614U 02032AF  25348.98195542  .00044127  00000-0  33031-2 0  9995
2 48614  98.6635 357.4104 0000725 328.7402  31.3777 15.02572215251507
Epoch: 2025-12-14T23:34Z
TLE epoch observation values (Epoch: 2025-12-14T23:34:00.948Z)
Latitude
0.00002°
Longitude
-79.98062°
Altitude
561.567 km
Speed
7.581 km/s
True Right ascension
23h 49m 38s
True Declination
0° 00' 00"
Sunlit
Object was in daylight at epoch
Visualization orbit readout
Latitude
Unknown
Longitude
Unknown
Altitude
Unknown
Speed
Unknown
Apparent Right ascension
Unknown
Apparent Declination
Unknown
Sunlit
N/A
Visualization observer readout
Local Sidereal Time
22:49:57
Azimuth
Unknown
Elevation
Unknown
Doppler factor
Unknown
Orbital elements
Apogee altitude
556.518 km
Perigee altitude
555.512 km
Semi-major axis
6,934.152 km
Eccentricity
0.00007
Inclination
98.6635°
RAAN
357.4104°
Arg. of periapsis
328.7402°
True anomaly
31.38203°
Mean anomaly
31.3777°
Eccentric anomaly
31.37986°
Mean motion
3.75883 °/min
Orbital period
95.77 mins
BSTAR
0.0033031
Loading maneuver chart data...
Computing Atmospheric mass density...
Loading historical data...
Loading historical data...
Loading historical data...
Loading historical data...
Loading historical data...
Loading historical data...
Loading historical data...

Documentation

Showing up to 5 results
|